• In Hungary
  • List of Countries
  • For 7 days
  • Water Temperature
  • Satellite Maps
  • Weather Map
  • News
  • Weather Widgets
  • user-avatar
    Login

    Hourly Weather Armawir

    Today, 18 November, Saturday

    Time Temperature Precipitation Wind Pressure Humidity
    00:00 +9°C° 0 mm 1 mps 689 mmHg 44%
    01:00 +9°C° 0 mm 1 mps 689 mmHg 45%
    02:00 +9°C° 0 mm 1 mps 689 mmHg 46%
    03:00 +8°C° 0 mm 1 mps 689 mmHg 49%
    04:00 +8°C° 0 mm 1 mps 689 mmHg 50%
    05:00 +8°C° 0 mm 1 mps 689 mmHg 51%
    06:00 +8°C° 0 mm 1 mps 689 mmHg 52%
    07:00 +9°C° 0 mm 1 mps 690 mmHg 47%
    08:00 +11°C° 0 mm 1 mps 690 mmHg 42%
    09:00 +13°C° 0 mm 1 mps 690 mmHg 38%
    10:00 +14°C° 0 mm 2 mps 690 mmHg 35%
    11:00 +15°C° 0 mm 2 mps 690 mmHg 33%
    12:00 +16°C° 0 mm 3 mps 690 mmHg 30%
    13:00 +16°C° 0 mm 3 mps 690 mmHg 30%
    14:00 +16°C° 0 mm 3 mps 689 mmHg 29%
    15:00 +16°C° 0 mm 3 mps 689 mmHg 29%
    16:00 +15°C° 0 mm 2 mps 689 mmHg 33%
    17:00 +13°C° 0 mm 2 mps 689 mmHg 36%
    18:00 +12°C° 0 mm 2 mps 689 mmHg 40%
    19:00 +10°C° 0 mm 2 mps 689 mmHg 41%
    20:00 +10°C° 0 mm 2 mps 689 mmHg 41%
    21:00 +10°C° 0 mm 2 mps 689 mmHg 42%
    22:00 +9°C° 0 mm 2 mps 689 mmHg 43%
    23:00 +9°C° 0 mm 2 mps 689 mmHg 44%

    Tomorrow, 19 November, Sunday

    Time Temperature Precipitation Wind Pressure Humidity
    00:00 +9°C° 0 mm 2 mps 689 mmHg 44%
    01:00 +9°C° 0 mm 2 mps 689 mmHg 45%
    02:00 +8°C° 0 mm 2 mps 688 mmHg 45%
    03:00 +8°C° 0 mm 2 mps 688 mmHg 45%
    04:00 +8°C° 0 mm 2 mps 688 mmHg 44%
    05:00 +8°C° 0 mm 2 mps 688 mmHg 44%
    06:00 +8°C° 0 mm 2 mps 688 mmHg 44%
    07:00 +9°C° 0 mm 2 mps 688 mmHg 40%
    08:00 +12°C° 0 mm 2 mps 688 mmHg 37%
    09:00 +13°C° 0 mm 2 mps 689 mmHg 34%
    10:00 +13°C° 0.1 mm 2 mps 688 mmHg 36%
    11:00 +14°C° 0.1 mm 2 mps 688 mmHg 38%
    12:00 +13°C° 0.1 mm 3 mps 688 mmHg 40%
    13:00 +13°C° 0.2 mm 3 mps 688 mmHg 44%
    14:00 +12°C° 0.2 mm 3 mps 687 mmHg 49%
    15:00 +12°C° 0.2 mm 3 mps 687 mmHg 54%
    16:00 +12°C° 0.1 mm 2 mps 687 mmHg 57%
    17:00 +12°C° 0.1 mm 2 mps 687 mmHg 60%
    18:00 +10°C° 0.1 mm 2 mps 687 mmHg 64%
    19:00 +10°C° 0.1 mm 2 mps 687 mmHg 64%
    20:00 +9°C° 0.1 mm 2 mps 687 mmHg 65%
    21:00 +9°C° 0.1 mm 2 mps 687 mmHg 66%
    22:00 +9°C° 0 mm 2 mps 687 mmHg 66%
    23:00 +9°C° 0 mm 2 mps 687 mmHg 67%

    Day after tomorrow, 20 November, Monday

    Time Temperature Precipitation Wind Pressure Humidity
    00:00 +8°C° 0 mm 2 mps 687 mmHg 67%
    01:00 +8°C° 0 mm 2 mps 687 mmHg 67%
    02:00 +8°C° 0 mm 2 mps 687 mmHg 67%
    03:00 +8°C° 0 mm 2 mps 687 mmHg 67%
    04:00 +7°C° 0 mm 2 mps 687 mmHg 68%
    05:00 +7°C° 0 mm 2 mps 687 mmHg 68%
    06:00 +7°C° 0 mm 2 mps 687 mmHg 68%
    07:00 +8°C° 0 mm 2 mps 687 mmHg 64%
    08:00 +9°C° 0 mm 2 mps 687 mmHg 60%
    09:00 +10°C° 0 mm 2 mps 687 mmHg 57%
    10:00 +12°C° 0 mm 2 mps 687 mmHg 55%
    11:00 +12°C° 0 mm 3 mps 686 mmHg 53%
    12:00 +13°C° 0 mm 3 mps 686 mmHg 51%
    13:00 +13°C° 0.1 mm 3 mps 685 mmHg 51%
    14:00 +13°C° 0.1 mm 3 mps 685 mmHg 51%
    15:00 +13°C° 0.1 mm 3 mps 685 mmHg 52%
    16:00 +12°C° 0.1 mm 3 mps 684 mmHg 55%
    17:00 +12°C° 0.1 mm 2 mps 684 mmHg 59%
    18:00 +10°C° 0.1 mm 2 mps 684 mmHg 63%
    19:00 +10°C° 0.1 mm 2 mps 684 mmHg 64%
    20:00 +10°C° 0.1 mm 2 mps 684 mmHg 65%
    21:00 +9°C° 0.1 mm 2 mps 684 mmHg 66%
    22:00 +9°C° 0.1 mm 2 mps 683 mmHg 67%
    23:00 +9°C° 0.1 mm 2 mps 683 mmHg 67%

    21 November, Tuesday

    Time Temperature Precipitation Wind Pressure Humidity
    00:00 +9°C° 0.1 mm 2 mps 683 mmHg 68%
    01:00 +9°C° 0.1 mm 2 mps 683 mmHg 69%
    02:00 +9°C° 0.1 mm 2 mps 682 mmHg 69%
    03:00 +9°C° 0.1 mm 2 mps 682 mmHg 70%
    04:00 +8°C° 0 mm 2 mps 681 mmHg 70%
    05:00 +8°C° 0 mm 2 mps 681 mmHg 71%
    06:00 +8°C° 0 mm 2 mps 681 mmHg 71%
    07:00 +9°C° 0 mm 2 mps 681 mmHg 67%
    08:00 +10°C° 0 mm 2 mps 681 mmHg 64%
    09:00 +11°C° 0 mm 3 mps 681 mmHg 60%
    10:00 +12°C° 0 mm 3 mps 681 mmHg 58%
    11:00 +13°C° 0 mm 3 mps 680 mmHg 56%
    12:00 +14°C° 0 mm 4 mps 680 mmHg 54%
    13:00 +14°C° 0.1 mm 4 mps 679 mmHg 54%
    14:00 +14°C° 0.1 mm 4 mps 679 mmHg 55%
    15:00 +14°C° 0.1 mm 4 mps 679 mmHg 56%
    16:00 +13°C° 0.1 mm 3 mps 679 mmHg 62%
    17:00 +12°C° 0.1 mm 3 mps 679 mmHg 67%
    18:00 +11°C° 0.1 mm 3 mps 679 mmHg 73%
    19:00 +10°C° 0.1 mm 2 mps 679 mmHg 74%
    20:00 +10°C° 0.1 mm 2 mps 679 mmHg 76%
    21:00 +9°C° 0.1 mm 2 mps 679 mmHg 77%
    22:00 +9°C° 0.1 mm 2 mps 678 mmHg 76%
    23:00 +9°C° 0.1 mm 2 mps 678 mmHg 76%

    22 November, Wednesday

    Time Temperature Precipitation Wind Pressure Humidity
    00:00 +9°C° 0.1 mm 2 mps 678 mmHg 75%
    01:00 +9°C° 0.1 mm 2 mps 679 mmHg 74%
    02:00 +9°C° 0.1 mm 2 mps 679 mmHg 73%
    03:00 +9°C° 0.1 mm 2 mps 679 mmHg 72%
    04:00 +9°C° 0.7 mm 2 mps 679 mmHg 73%
    05:00 +8°C° 0.7 mm 3 mps 679 mmHg 74%
    06:00 +8°C° 0.7 mm 3 mps 680 mmHg 75%
    07:00 +7°C° 0.5 mm 3 mps 680 mmHg 74%
    08:00 +7°C° 0.5 mm 3 mps 681 mmHg 73%
    09:00 +7°C° 0.5 mm 3 mps 681 mmHg 72%
    10:00 +8°C° 0.1 mm 3 mps 681 mmHg 66%
    11:00 +8°C° 0.1 mm 3 mps 681 mmHg 61%
    12:00 +9°C° 0.1 mm 3 mps 681 mmHg 55%
    13:00 +9°C° 0 mm 3 mps 681 mmHg 54%
    14:00 +9°C° 0 mm 3 mps 681 mmHg 54%
    15:00 +8°C° 0 mm 2 mps 681 mmHg 53%
    16:00 +8°C° 0.1 mm 2 mps 682 mmHg 55%
    17:00 +7°C° 0.1 mm 2 mps 682 mmHg 58%
    18:00 +7°C° 0.1 mm 1 mps 683 mmHg 61%
    19:00 +7°C° 0.1 mm 1 mps 683 mmHg 62%
    20:00 +6°C° 0.1 mm 1 mps 683 mmHg 64%
    21:00 +6°C° 0.1 mm 1 mps 683 mmHg 65%
    22:00 +5°C° 0.1 mm 1 mps 683 mmHg 66%
    23:00 +5°C° 0.1 mm 1 mps 683 mmHg 67%

    23 November, Thursday

    Time Temperature Precipitation Wind Pressure Humidity
    00:00 +5°C° 0.1 mm 1 mps 683 mmHg 68%
    01:00 +5°C° 0.2 mm 1 mps 683 mmHg 69%
    02:00 +5°C° 0.2 mm 1 mps 683 mmHg 70%
    03:00 +5°C° 0.2 mm 1 mps 683 mmHg 71%
    04:00 +5°C° 0.4 mm 1 mps 683 mmHg 73%
    05:00 +4°C° 0.4 mm 1 mps 684 mmHg 75%
    06:00 +4°C° 0.4 mm 1 mps 684 mmHg 77%
    07:00 +4°C° 0.4 mm 1 mps 684 mmHg 77%
    08:00 +4°C° 0.4 mm 1 mps 685 mmHg 76%
    09:00 +3°C° 0.4 mm 2 mps 685 mmHg 76%
    10:00 +4°C° 0.3 mm 2 mps 685 mmHg 73%
    11:00 +3°C° 0.3 mm 3 mps 685 mmHg 69%
    12:00 +3°C° 0.3 mm 3 mps 685 mmHg 66%
    13:00 +3°C° 0.2 mm 3 mps 685 mmHg 65%
    14:00 +3°C° 0.2 mm 3 mps 685 mmHg 64%
    15:00 +3°C° 0.2 mm 3 mps 686 mmHg 63%
    16:00 +3°C° 0.1 mm 3 mps 686 mmHg 65%
    17:00 +2°C° 0.1 mm 3 mps 687 mmHg 67%
    18:00 +3°C° 0.1 mm 2 mps 687 mmHg 69%
    19:00 +2°C° 0.1 mm 2 mps 687 mmHg 69%
    20:00 +2°C° 0.1 mm 2 mps 688 mmHg 70%
    21:00 +2°C° 0.1 mm 2 mps 688 mmHg 70%
    22:00 +1°C° 0.1 mm 2 mps 688 mmHg 71%
    23:00 +1°C° 0.1 mm 2 mps 688 mmHg 72%
    Show more